Tracking 18785 objects as of 19-August-2017
HD Live streaming from Space Station
objects crossing your sky now

OPS 9327 (IDSCS 14)

Track OPS 9327 (IDSCS 14) now!
OPS 9327 (IDSCS 14) is classified as:


NORAD ID: 2654
Int'l Code: 1967-003G
Perigee: 33,664.8 km
Apogee: 34,093.0 km
Inclination: 2.3 °
Period: 1,339.4 minutes
Semi major axis: 40249 km
RCS: 0.5011 m2 (medium)
Launch date: January 18, 1967
Source: United States (US)
Launch site: AIR FORCE EASTERN TEST RANGE (AFETR)
Your satellite tracking list
Your tracking list is empty





NASA's NSSDC Master Catalog

Two Line Element Set (TLE):
1  2654U 67003G   17229.68953825 -.00000135 +00000-0 +00000-0 0  9990
2  2654 002.2944 055.4088 0053191 338.8186 232.8748 01.07511779104799
Source of the keplerian elements: AFSPC